Regional Weather Roundup
Issued by NWS

Home | Current Version | Previous Version | Text Only | Print | Product List | Glossary On
Versions: 1 2 3 4 5 6 7 8 9 10 11 12 13 14 15 16 17 18 19 20 21 22 23 24 25 26 27 28 29 30 31 32 33 34 35 36 37 38 39 40 41 42 43 44 45 46 47 48 49 50
000
ASUS44 KBMX 281010
RWRAL

ALABAMA REGIONAL WEATHER ROUNDUP
NATIONAL WEATHER SERVICE BIRMINGHAM AL
500 AM CDT SUN AUG 28 2016

NOTE: "FAIR" INDICATES FEW OR NO CLOUDS BELOW 12,000 FEET
WITH NO SIGNIFICANT WEATHER AND/OR OBSTRUCTIONS TO VISIBILITY.

THE REMARK "TC" DENOTES TEMPERATURE IN DEGREES CELSIUS.

ALZ001>011-014-016>018-020-281100-
NORTH ALABAMA

CITY           SKY/WX    TMP DP  RH WIND       PRES   REMARKS
MUSCLE SHOALS  FOG       72  70  93 CALM      30.09S VSB 1
HUNTSVILLE     CLEAR     74  70  87 E7        30.09R
DECATUR        CLEAR     71  70  96 E3        30.09R
HALEYVILLE     NOT AVBL
GADSDEN        CLEAR     75  72  90 E8        30.10R
$$

ALZ012-013-022-023-030>036-040>044-281100-
WEST CENTRAL ALABAMA

CITY           SKY/WX    TMP DP  RH WIND       PRES   REMARKS
TUSCALOOSA     PTCLDY    72  72 100 CALM      30.05R
$$

ALZ015-024>027-033>036-040>044-281100-
CENTRAL ALABAMA

CITY           SKY/WX    TMP DP  RH WIND       PRES   REMARKS
BIRMINGHAM     PTCLDY    77  69  76 NE5       30.10R
MONTGOMERY     CLOUDY    75  69  81 E6        30.04R
SHELBY CO ARPT PTCLDY    74  68  81 CALM      30.07R
MAXWELL AFB    CLOUDY    76  71  86 N3        30.04R
GREENVILLE     FAIR      76  67  73 CALM      30.03R
$$

ALZ019-021-028-029-037-038-045>048-281100-
EAST CENTRAL ALABAMA

CITY           SKY/WX    TMP DP  RH WIND       PRES   REMARKS
ANNISTON       CLEAR     74  69  85 CALM      30.11R
ALEXANDER CITY CLEAR     75  73  93 CALM      30.09R
AUBURN         CLEAR     74  67  78 E3        30.10R
$$

ALZ051>064-281100-
SOUTHWEST ALABAMA

CITY           SKY/WX    TMP DP  RH WIND       PRES   REMARKS
MOBILE         CLOUDY    75  71  87 NE7       29.99S
BROOKLEY FIELD CLOUDY    79  76  90 N7        29.99S
EVERGREEN      CLOUDY    73  71  93 CALM      30.02R
$$

ALZ049-050-065>069-281100-
SOUTHEAST ALABAMA

CITY           SKY/WX    TMP DP  RH WIND       PRES   REMARKS
DOTHAN         PTCLDY    74  73  97 NE5       30.06R
OZARK          CLEAR     73  72  97 NE7       30.02R
TROY           PTCLDY    72  71  97 CALM      30.05R
EUFAULA        FAIR      70  68  93 CALM      30.05R
$$



USA.gov is the U.S. government's official web portal to all federal, state and local government web resources and services.